Duchifat 3
1 44854U 19089C   25065.75353847  .00041937  00000-0  11604-2 0  9990
2 44854  36.9464 233.7907 0005417 112.5614 247.5713 15.36048091288304
TO-108
1 44881U 19093C   25065.71604219  .00001694  00000-0  20345-3 0  9992
2 44881  97.7999 143.3427 0013999 177.6207 182.5077 14.85229457281998
FloripaSat 1
1 44885U 19093G   25065.67898899  .00007985  00000-0  70460-3 0  9992
2 44885  97.8185 153.1972 0011377 160.1321 200.0345 14.96617087282544
RS-44
1 44909U 19096E   25065.56515840  .00000008  00000-0 -16602-4 0  9991
2 44909  82.5188 290.4262 0217816 157.4979 203.5856 12.79738850242537
UPMSat 2
1 46276U 20061E   25065.23582313  .00049388  00000-0  73382-3 0  9997
2 46276  97.2573 137.3155 0001150 179.0967 181.0290 15.55035185250580
SALSAT
1 46495U 20068K   25065.66774819  .00011470  00000-0  52784-3 0  9992
2 46495  97.8521  39.5087 0013917 125.0372 235.2170 15.20416469244092
CubeSX-Sirius-HSE
1 47951U 21022V   25065.72418336  .00088599  00000-0  12380-2 0  9990
2 47951  97.4300 333.7659 0003446 280.3520  79.7346 15.56546712218924
CubeSX-HSE
1 47952U 21022W   25065.69749775  .00093933  00000-0  12826-2 0  9994
2 47952  97.4297 333.9333 0003288 265.1487  94.9393 15.57151122218938
KSU-Cubesat
1 47954U 21022Y   25065.72298384  .00492585  00000-0  18241-2 0  9998
2 47954  97.4229 338.7569 0004716 143.1938 216.9657 15.86925750218962
GRBAlpha
1 47959U 21022AD  25065.72592009  .00091392  00000-0  12581-2 0  9996
2 47959  97.4288 334.1135 0003417 276.8409  83.2457 15.56940565217763
Orbicraft-Zorkiy
1 47960U 21022AE  25065.76046483  .00203249  00000-0  15755-2 0  9994
2 47960  97.4265 337.6005 0001882 177.5629 182.5643 15.71218087218652
TUBIN
1 48900U 21059X   25065.71609439  .00043985  00000-0  78723-3 0  9994
2 48900  97.6687 228.0048 0004984 231.4417 128.6388 15.49848415205290
LEDSAT
1 49069U 21073D   25065.71408444  .00049190  00000-0  97515-3 0  9994
2 49069  97.3990 144.2276 0011888  68.2750 291.9763 15.46814419196700
CUTE
1 49263U 21088D   25065.27033823  .00015775  00000-0  36663-3 0  9991
2 49263  97.4601 139.0318 0008892 221.9025 138.1542 15.42387118189716
TeikyoSat 4
1 49396U 21102B   25065.55678848  .00002670  00000-0  18222-3 0  9999
2 49396  97.4245 107.3847 0014517  98.9738 261.3133 15.06945379182230
Z-Sat
1 49399U 21102E   25065.70128905  .00005895  00000-0  33519-3 0  9991
2 49399  97.3950 110.0703 0020170  75.1664 285.1800 15.13072407182623
KOSEN 1
1 49402U 21102H   25065.57352177  .00009336  00000-0  45758-3 0  9993
2 49402  97.3859 112.6881 0017700  55.3176 304.9723 15.18212832182867
HO-113
1 50466U 21131B   25065.54561272  .00000903  00000-0  29722-3 0  9996
2 50466  98.5108 155.3869 0005054  70.2715 289.9018 14.40591281167766
IRIS-A
1 51044U 22002BN  25065.67987621  .00098442  00000-0  11190-2 0  9995
2 51044  97.3378 141.3397 0004198 177.4262 182.7019 15.61983137174916
Foresail-1
1 52766U 22057AL  25065.46206906  .00076529  00000-0  90348-3 0  9999
2 52766  97.5998 208.3245 0007149 264.4501  95.5940 15.61054791154913
SNUGLITE 2
1 52899U 22065F   25065.42526094  .00002226  00000-0  44576-3 0  9999
2 52899  98.1512 208.4343 0008288  57.4911 302.7091 14.62742907142571
IO-117
1 53106U 22080B   25051.21822557 -.00000003  00000-0  00000+0 0  9995
2 53106  70.1434 106.3440 0008542  48.0089 312.1297  6.42557744 61200
UmKA 1 (RS40S)
1 57172U 23091G   25065.73642418  .00007489  00000-0  42059-3 0  9991
2 57172  97.5725 121.6549 0013573 304.4152  55.5795 15.13538015 93128
CubeBel-2 (EU11S)
1 57175U 23091K   25065.72069671  .00011070  00000-0  57048-3 0  9992
2 57175  97.5722 122.2782 0011771 314.5462  45.4809 15.16494529 93160
VERONIKA
1 58261U 23174F   25065.69352472  .00069555  00000-0  13374-2 0  9995
2 58261  97.4235 147.8563 0006028  25.7227 334.4321 15.47667232 73901
KAFASAT
1 58317U 23174BP  25065.67965691  .00283533  00000-0  19603-2 0  9993
2 58317  97.4095 151.7639 0005536 299.7215  60.3497 15.73691868 74189
ENSO
1 58470U 23185J   25065.74906664  .00043567  00000-0  95616-3 0  9998
2 58470  97.3854 138.5984 0008277  68.2490 291.9638 15.43891372 70348
EIRSAT-1
1 58472U 23185L   25065.71322395  .00057980  00000-0  10834-2 0  9992
2 58472  97.3847 139.3673 0006799  67.0632 293.1335 15.48536789 70394
SONATE-2
1 59112U 24043Q   25065.23793358  .00021996  00000-0  73555-3 0  9994
2 59112  97.4986 194.8942 0012150  94.3061 265.9568 15.30936795 55720
MO-122
1 60209U 24125G   25065.53203716  .00021292  00000-0  70174-3 0  9994
2 60209  97.2928 278.4302 0021860 116.2758 244.0733 15.31244581 37387
GRBBeta
1 60237U 24128C   25065.53964273  .00007422  00000-0  57996-3 0  9996
2 60237  61.9928  50.6285 0043113  36.0094 324.3887 15.01173505 35927
Curium One
1 60242U 24128H   25065.37489462  .00012263  00000-0  91024-3 0  9995
2 60242  61.9831  50.6761 0043362  31.0439 329.3201 15.02661540 35915
ROBUSTA-3A
1 60243U 24128J   25065.28463183  .00011956  00000-0  89854-3 0  9994
2 60243  61.9898  51.5269 0041570  28.8702 331.4676 15.02273461 35896
CatSat
1 60246U 24125J   25065.54612480  .00013078  00000-0  47081-3 0  9992
2 60246  97.2713 278.6143 0046530  73.0841 287.5492 15.27661758 35464
HYPERVIEW-1G (RS66S)
1 61772U 24199AP  25065.70716735  .00023954  00000-0  82436-3 0  9991
2 61772  97.3699 295.0131 0015406 166.1705 193.9961 15.29941947 62424
AO-123
1 61781U 24199AY  25065.72344326  .00010306  00000-0  39856-3 0  9991
2 61781  97.3705 294.7005 0016710 168.2751 191.8880 15.26276403 62401
ZIMSAT 2
1 61783U 24199BA  25065.72242208  .00036231  00000-0  11689-2 0  9997
2 61783  97.3692 295.1389 0016297 165.7177 194.4529 15.31928120 65589
POEM 4 (BGS ARPIT)
1 62461U 24253C   25065.73326164  .00228230  30020-4  72126-3 0  9992
2 62461  55.2163 300.0578 0008091 115.7800 244.4090 15.90888767 10425
HADES-R (SO-124)
1 62690U 25009CK  25064.74565157  .00041169  00000-0  19148-2 0  9992
2 62690  97.4173 146.4975 0002614  83.6593 276.4939 15.19827975  7549
